Theta_e
316 315 314 313 314 316 315 316 316 318 317 316 315 316 317 317 318 320 319 318 318 319 320 319 318 320 317 317 318 318 316 316 310 313 318 318 320 319 319 320 319 319 318
316 316 316 313 312 315 316 316 317 316 316 315 315 315 316 317 318 317 316 317 316 316 317 318 317 316 318 320 316 318 317 318 314 313 316 315 318 321 321 322 320 319 319
316 315 317 317 317 316 316 318 316 316 314 315 314 314 315 316 316 317 316 316 317 317 316 316 316 316 316 316 317 318 317 320 320 317 315 319 320 319 319 321 321 321 320
315 316 316 316 317 318 318 318 317 317 313 313 315 314 314 315 315 315 316 318 317 317 318 317 317 317 317 318 318 318 317 317 316 315 315 315 315 319 318 316 316 319 316
315 316 316 318 317 318 318 317 317 317 316 316 314 314 314 314 312 315 317 316 316 316 316 316 317 314 311 312 316 318 320 316 316 315 314 312 314 312 316 316 315 315 319
315 314 316 318 317 317 317 317 318 318 318 317 316 315 316 313 303 304 309 317 317 316 316 317 318 313 311 307 308 310 312 319 318 314 313 313 317 318 317 316 314 313 312
314 315 314 316 316 317 316 316 317 319 319 318 317 317 316 315 300 301 303 319 318 319 318 319 317 316 316 318 310 308 310 309 310 317 317 317 319 320 322 320 318 318 314
314 313 313 314 314 313 317 317 318 321 319 319 318 317 317 311 299 299 302 319 319 319 319 319 320 319 317 314 318 317 317 320 320 318 322 323 323 322 320 319 320 320 318
314 313 315 316 314 314 313 317 319 319 321 320 319 316 315 315 298 297 303 320 319 318 319 319 319 319 301 301 316 317 316 317 311 309 306 303 301 302 304 315 312 310 308
314 315 317 318 317 316 315 315 318 319 321 318 319 318 306 315 297 297 301 313 316 314 318 318 309 309 299 299 317 316 314 314 315 316 318 313 309 313 306 319 312 307 307
316 317 317 319 319 319 321 320 315 316 316 318 318 319 317 314 311 297 296 310 311 312 313 314 315 299 299 299 298 315 309 309 313 314 312 313 317 315 314 315 315 310 307
318 317 317 319 318 317 320 321 318 315 314 312 313 314 316 317 304 299 296 296 300 314 314 315 311 297 296 297 304 296 297 300 312 310 310 310 310 312 312 312 315 314 313
318 317 318 319 318 318 318 320 317 316 311 309 307 306 309 313 311 300 298 297 299 307 316 305 300 299 298 297 298 299 298 310 309 309 308 308 309 311 314 313 314 313 313
317 316 317 317 317 319 319 316 316 315 312 310 309 308 307 309 312 312 310 312 303 306 306 312 307 303 297 304 305 307 311 310 308 308 308 309 310 310 310 310 307 307 306
318 318 318 316 317 317 317 317 316 319 313 311 313 310 309 308 306 298 298 306 307 305 304 314 313 312 311 311 311 311 310 309 307 307 307 307 307 308 308 311 307 306 304
317 316 316 315 314 314 315 315 302 302 297 295 292 297 310 299 294 293 293 293 293 293 305 309 309 310 309 309 308 307 307 306 306 305 307 307 306 306 306 307 307 305 303
317 318 315 312 314 313 314 312 312 308 296 294 292 291 291 292 291 291 292 292 293 293 305 307 308 309 309 308 307 306 304 305 306 305 306 307 306 306 305 306 306 305 303
318 306 316 315 314 314 313 312 313 313 311 312 296 296 292 291 291 291 291 293 306 299 307 306 307 309 308 307 306 305 304 304 305 305 306 307 306 305 304 305 305 303 302
316 314 315 315 315 312 315 313 312 313 311 311 313 298 297 292 292 292 292 307 308 307 306 306 308 308 307 307 307 305 305 303 301 304 306 306 306 305 304 305 305 294 296
317 307 306 315 313 313 313 311 311 312 312 311 310 312 313 307 308 310 309 309 308 308 307 306 307 307 306 306 306 304 303 302 303 304 305 305 306 305 304 303 303 302 303
315 315 309 315 314 311 312 312 311 312 311 311 312 311 292 309 308 308 308 309 308 308 308 307 306 307 306 307 304 303 302 302 302 303 303 304 305 303 304 303 303 303 302
316 314 313 312 315 311 312 313 312 311 311 311 311 309 289 309 310 310 310 310 309 309 309 308 306 306 307 305 305 303 302 301 301 301 302 303 303 304 303 302 302 302 302
317 314 313 313 313 308 312 313 312 311 311 312 312 312 311 311 311 311 311 312 311 310 310 309 307 306 307 308 306 304 301 301 301 300 300 301 302 303 302 301 301 301 301
314 315 315 312 311 312 311 311 312 305 311 312 311 312 312 312 312 313 312 312 312 312 311 310 309 307 307 307 306 305 304 303 301 300 300 300 301 300 302 300 301 300 300
307 315 315 315 314 312 312 312 313 312 313 311 311 313 314 314 314 313 313 313 312 312 312 311 310 309 308 307 305 303 291 285 292 285 297 299 300 301 301 301 300 300 299
309 311 315 314 312 314 315 313 312 311 312 312 313 314 313 313 312 314 314 314 312 312 311 312 311 310 308 307 306 291 285 285 290 284 294 296 297 299 300 301 300 299 299
Wind_Speed
9 9 8 8 10 10 7 6 7 7 7 8 8 8 7 8 8 7 8 7 8 6 6 6 7 6 5 4 3 3 3 3 4 5 2 6 3 4 3 5 5 5 7
7 8 7 5 5 7 7 7 6 7 8 6 7 6 7 7 7 6 9 8 8 7 7 6 7 5 3 2 4 4 6 3 3 3 4 5 4 3 5 5 5 5 6
7 8 9 7 5 5 5 7 7 7 6 6 6 6 7 7 7 7 7 7 7 7 6 6 5 5 5 5 5 2 4 2 0 2 3 1 2 3 4 7 5 4 8
6 7 8 9 8 6 6 7 6 7 6 6 6 6 5 6 6 6 6 6 6 7 6 6 6 6 5 5 4 3 3 1 3 3 1 2 4 4 4 4 3 4 4
7 7 8 8 7 7 7 7 8 8 8 7 6 5 5 4 7 10 6 6 6 6 6 6 7 7 6 8 7 4 0 3 1 1 2 4 2 2 2 4 4 5 3
7 7 6 7 7 7 6 6 6 7 7 7 7 6 6 6 7 8 11 4 4 5 5 5 5 6 5 2 5 7 8 6 5 7 4 4 3 5 5 6 8 4 5
6 6 5 7 7 5 5 4 5 6 5 6 6 6 6 6 9 8 8 6 3 4 4 4 2 5 3 4 8 9 11 11 11 8 7 6 6 6 8 8 7 7 6
5 5 6 4 4 7 5 5 3 2 4 4 6 6 5 6 7 7 7 7 4 3 3 3 4 4 6 7 8 5 5 1 2 5 6 7 7 8 8 9 8 8 8
3 4 5 6 5 3 5 4 3 4 2 3 3 4 5 4 5 8 10 4 3 4 4 4 5 6 6 2 8 6 7 5 5 6 5 6 6 4 7 7 5 7 8
4 5 6 6 7 6 5 5 5 4 3 3 2 1 2 4 5 4 8 7 3 6 5 3 5 5 5 5 7 6 8 7 6 6 3 6 8 6 5 5 7 8 7
5 6 4 6 6 6 6 4 5 5 5 5 5 4 5 2 1 2 5 8 7 8 4 3 8 6 3 1 3 6 6 7 6 7 5 3 2 5 2 2 4 7 7
6 7 5 7 6 7 6 5 5 5 5 4 5 6 5 3 5 6 2 4 6 7 5 5 5 4 3 4 5 5 8 8 6 4 4 3 4 3 3 4 3 5 6
7 7 7 7 8 6 8 6 5 5 6 4 3 4 3 2 3 9 8 8 7 6 6 4 1 5 8 5 3 6 11 4 6 5 4 4 4 3 5 5 5 4 7
8 7 8 6 7 8 7 6 5 4 4 4 3 2 2 2 1 3 4 4 9 8 8 7 2 5 6 4 6 7 3 4 5 5 5 5 4 3 3 3 5 5 6
9 8 7 7 6 8 8 6 7 5 4 4 2 3 3 3 6 4 3 5 6 6 7 7 6 5 4 4 3 3 4 4 5 5 5 5 5 4 4 2 4 5 5
8 9 7 7 6 7 5 9 8 8 3 6 5 4 0 1 7 2 3 6 7 7 6 8 5 5 5 4 4 5 5 3 5 5 5 4 5 5 5 5 4 4 5
10 8 8 9 6 7 7 7 8 6 8 11 10 10 8 9 5 6 6 7 10 5 8 7 6 5 4 4 4 5 5 4 5 5 5 4 5 5 4 4 4 4 5
11 9 9 9 7 7 7 6 8 7 6 4 11 11 13 12 10 9 7 6 9 9 8 5 5 3 4 4 5 5 4 4 4 4 4 4 4 5 6 5 4 4 5
10 9 9 7 7 6 8 9 8 6 5 6 3 7 11 8 8 8 6 8 6 5 5 4 4 4 4 4 3 3 3 4 4 5 4 4 4 5 5 5 3 2 3
11 12 9 9 8 8 9 8 6 7 6 6 5 3 7 7 9 10 10 7 5 5 4 4 4 3 4 3 3 3 4 4 3 4 3 4 4 5 5 5 5 5 4
9 10 12 10 10 8 9 9 5 7 8 8 5 2 5 5 5 5 5 5 5 5 3 4 5 4 4 2 3 3 4 4 4 4 4 4 4 5 4 5 5 4 4
11 10 9 9 10 7 9 7 10 7 8 9 7 5 8 6 6 5 4 5 5 5 4 4 5 4 3 3 3 4 4 4 4 4 5 5 5 4 5 5 5 4 5
11 12 11 9 9 8 10 10 10 11 9 8 7 8 8 8 7 6 5 5 5 5 5 5 5 5 4 2 3 4 4 4 4 4 6 6 5 5 5 5 5 5 5
11 14 15 11 9 11 8 9 10 11 13 11 7 8 8 6 7 8 6 6 6 6 6 6 6 6 4 4 4 4 3 2 4 5 5 6 6 5 7 5 6 5 5
10 15 13 11 12 10 11 10 12 11 12 9 8 7 6 7 8 8 8 7 7 6 7 6 6 7 8 9 8 4 9 6 4 4 6 7 7 8 8 7 7 6 6
11 13 13 9 8 11 13 10 11 9 9 8 10 8 8 9 8 6 8 8 8 8 8 7 8 10 9 8 10 6 8 6 4 4 5 6 7 7 6 7 8 6 6
Wind_Direction
16 3 4 347 341 348 350 353 351 353 2 357 355 347 5 18 35 50 59 48 52 63 68 71 71 42 46 75 71 57 56 342 86 113 102 124 196 259 247 238 238 257 194
31 349 342 326 323 332 355 360 358 2 4 352 360 359 5 29 38 27 35 29 29 28 32 42 45 55 75 49 74 21 52 46 46 173 89 161 229 196 272 278 279 282 285
26 341 343 347 329 334 355 12 5 4 16 6 17 15 11 11 22 29 22 29 41 40 41 48 52 66 59 70 49 76 109 91 140 92 178 181 211 237 234 217 236 244 236
355 339 350 3 8 17 21 19 20 36 37 30 28 28 14 14 19 16 18 29 55 60 60 60 63 73 84 88 66 64 56 342 88 235 177 170 229 135 263 287 291 252 294
339 347 0 1 34 38 35 35 41 44 46 51 44 36 29 31 30 350 13 51 57 74 70 72 59 36 12 351 340 33 8 262 203 224 177 224 218 353 1 307 333 338 352
348 351 352 20 31 39 35 40 39 38 41 38 41 38 29 63 18 342 325 49 64 74 81 79 111 191 174 231 288 299 314 309 312 321 307 36 333 292 2 330 312 353 320
335 338 18 23 3 33 37 34 28 21 24 35 35 27 33 31 11 340 322 304 0 31 28 20 10 90 257 322 210 234 245 244 249 295 305 308 323 328 330 314 319 316 312
305 356 2 24 1 334 344 3 2 31 7 29 38 35 28 71 19 346 314 285 339 343 322 316 328 327 35 337 321 336 350 254 241 276 299 314 326 336 316 305 305 292 269
335 1 14 355 1 2 324 328 317 339 32 35 34 23 20 41 40 357 330 280 34 294 283 288 319 320 81 318 299 338 328 351 158 192 245 289 303 291 282 288 322 314 326
323 336 332 347 345 348 351 314 323 313 276 287 310 310 105 321 112 15 347 311 16 320 234 234 117 345 349 323 312 346 336 12 347 337 224 210 219 171 186 296 332 329 328
299 299 310 307 299 307 312 284 291 291 321 286 275 271 272 302 347 98 350 310 351 316 351 48 74 52 73 13 304 13 355 315 298 274 303 301 223 197 209 9 3 321 340
277 278 303 304 313 316 320 306 261 272 260 290 271 266 228 221 191 153 249 265 322 305 321 43 96 78 53 16 319 348 294 280 279 312 329 345 335 340 13 354 350 337 331
262 270 285 284 306 305 315 319 285 213 269 309 307 293 284 260 243 180 221 224 237 283 340 23 158 235 238 210 153 276 272 327 334 320 335 348 342 12 300 245 252 275 289
261 254 259 278 312 288 285 301 313 278 273 282 330 343 302 244 237 14 339 279 212 229 187 211 202 291 268 286 224 225 324 348 335 323 320 322 308 307 299 360 316 337 317
270 276 264 259 267 285 270 321 308 288 288 300 305 322 308 250 83 61 346 350 352 14 316 260 249 258 293 289 313 311 303 339 317 328 311 312 314 323 325 6 314 325 331
255 253 262 287 285 293 295 298 214 239 219 244 261 290 307 177 140 132 245 280 275 297 268 268 281 288 288 317 318 322 316 326 344 309 305 307 320 317 352 310 318 325 334
256 268 270 258 265 286 293 296 305 196 214 207 219 236 236 282 279 278 272 275 254 231 253 267 281 282 297 305 307 318 323 350 305 302 314 311 314 313 271 316 318 329 336
252 249 267 270 271 279 273 288 298 289 287 214 217 222 221 238 253 259 252 265 250 212 255 271 269 264 276 294 310 320 326 317 313 313 303 314 307 314 309 314 304 1 345
242 249 257 256 264 282 291 275 288 280 287 276 253 197 201 215 234 240 218 252 278 276 280 270 259 267 278 293 302 315 323 305 335 307 301 299 310 304 311 313 339 202 262
248 239 263 271 273 270 260 262 297 283 256 253 269 304 149 162 213 203 199 234 268 276 280 270 264 271 278 299 302 292 267 275 284 279 304 292 296 298 314 320 308 319 317
247 249 213 245 244 253 278 272 257 275 280 287 284 123 66 277 283 275 256 256 239 263 269 274 270 238 264 249 265 276 288 292 288 284 283 286 295 298 325 307 292 302 314
276 255 251 235 243 243 255 259 270 260 288 291 277 152 151 235 256 257 252 253 258 229 257 242 262 252 262 296 317 305 290 294 292 295 291 292 291 306 303 300 298 306 308
274 267 265 245 229 236 252 248 252 264 255 254 283 292 204 212 241 248 252 248 244 241 235 230 254 264 224 216 250 286 306 316 324 317 301 294 302 293 313 303 306 303 311
287 273 265 257 261 248 237 239 247 253 270 268 244 260 258 262 269 251 250 248 237 233 229 227 235 260 233 232 234 248 219 309 326 301 297 293 290 269 261 299 290 311 289
294 272 258 262 256 249 249 243 248 249 263 253 242 252 263 273 265 265 259 247 238 230 225 226 231 227 229 228 253 253 99 110 291 359 282 278 279 288 277 286 294 294 285
287 283 270 247 252 265 257 243 244 231 244 256 267 247 236 249 247 248 260 251 242 237 232 217 217 227 226 220 224 131 134 155 211 207 291 279 274 275 282 279 278 275 290